Location: Quedlinburg
(51.7921°N, 11.1414°E)
Time: 12:45:08
(UTC+02:00)

RS-15 - Pass Details

Date: 13 March 2026
Orbit: 1893 x 2152 km, 64.8° (Epoch: 22 April)

Event Time Altitude Azimuth Distance (km) Brightness Sun altitude
Rises 00:42:18 0° 275° (W) 5,293 10.3 -41.1°
Reaches altitude 10° 00:45:49 10° 282° (WNW) 4,314 9.8 -41.0°
Maximum altitude 00:56:15 44° 353° (N) 2,559 8.8 -40.8°
Drops below altitude 10° 01:07:09 10° 63° (ENE) 4,493 10.3 -40.4°
Sets 01:10:55 0° 71° (ENE) 5,530 10.8 -40.3°
